Total_Precipitation_Accumulation
2.05 2.00 2.02 1.92 1.85 1.85 1.96 2.18 2.42 2.21 1.65 1.23 1.13 1.07 1.07 1.08 1.14 1.06 0.95 1.08 1.08 1.08 1.16 1.20 1.18 1.19 1.23 1.31 1.44 1.55 1.65 1.74 1.83 1.89 1.94 2.01 2.17 2.41
1.88 1.84 1.80 1.77 1.79 1.80 1.85 1.94 2.14 2.26 1.92 1.32 1.13 1.09 1.13 1.12 1.18 1.05 0.98 1.12 1.06 1.03 1.04 1.08 1.10 1.10 1.10 1.14 1.20 1.27 1.34 1.39 1.49 1.66 1.82 1.93 2.03 2.17
1.78 1.74 1.64 1.58 1.64 1.66 1.66 1.70 1.79 1.93 1.88 1.38 1.15 1.13 1.15 1.10 1.09 1.00 0.92 0.89 0.86 0.94 0.92 0.94 1.00 1.02 1.03 1.06 1.13 1.20 1.23 1.25 1.33 1.46 1.62 1.76 1.88 1.92
1.60 1.62 1.57 1.50 1.51 1.53 1.56 1.53 1.50 1.53 1.63 1.47 1.17 1.06 1.03 0.96 0.95 0.95 0.90 0.85 0.77 0.88 0.88 0.89 0.98 1.01 0.99 0.99 1.02 1.09 1.16 1.19 1.23 1.28 1.37 1.47 1.61 1.76
1.44 1.49 1.51 1.54 1.53 1.50 1.48 1.45 1.42 1.42 1.51 1.55 1.28 1.06 1.00 0.95 0.94 0.91 0.87 0.86 0.79 0.85 0.88 0.87 0.90 0.95 0.97 0.98 0.99 1.00 1.03 1.09 1.16 1.22 1.29 1.37 1.46 1.58
1.39 1.45 1.46 1.43 1.38 1.35 1.36 1.33 1.36 1.42 1.45 1.52 1.44 1.25 1.09 0.98 1.02 1.02 0.99 0.90 0.86 0.84 0.93 0.91 0.92 0.93 0.95 0.94 0.91 0.90 0.91 0.99 1.13 1.28 1.40 1.47 1.48 1.51
1.45 1.41 1.42 1.46 1.39 1.33 1.31 1.30 1.33 1.42 1.51 1.58 1.49 1.31 1.16 1.07 1.01 0.94 0.99 0.97 0.94 0.86 0.89 0.87 0.88 0.90 0.93 0.98 1.01 1.01 1.04 1.12 1.25 1.40 1.52 1.58 1.60 1.62
1.42 1.31 1.30 1.38 1.37 1.38 1.36 1.33 1.37 1.47 1.58 1.63 1.54 1.34 1.07 0.98 1.00 1.13 1.25 1.38 1.30 0.92 0.92 1.01 1.05 1.12 1.07 1.05 1.17 1.21 1.22 1.28 1.36 1.43 1.50 1.57 1.60 1.62
1.29 1.22 1.16 1.14 1.21 1.13 1.19 1.26 1.27 1.37 1.46 1.47 1.42 1.17 1.02 0.97 1.17 1.37 1.40 1.42 1.25 1.03 1.16 1.32 1.22 1.17 1.07 1.11 1.29 1.22 1.21 1.23 1.28 1.34 1.38 1.43 1.47 1.51
1.17 1.09 1.06 1.04 1.06 1.14 1.21 1.27 1.17 1.10 1.09 1.06 1.04 1.00 0.99 1.07 1.30 1.56 1.69 1.75 1.52 1.30 1.28 1.41 1.20 1.08 1.01 1.05 1.22 1.18 1.12 1.15 1.21 1.28 1.33 1.36 1.39 1.40
1.19 1.12 1.09 1.03 1.14 1.30 1.35 1.35 1.19 1.02 1.01 1.07 1.13 1.13 1.19 1.25 1.35 1.63 1.90 2.07 1.84 1.36 1.14 1.19 1.12 1.07 1.05 1.03 1.11 1.23 1.17 1.14 1.20 1.24 1.25 1.28 1.34 1.40
1.22 1.17 1.23 1.17 1.27 1.37 1.29 1.30 1.22 1.02 0.95 0.95 0.98 1.00 0.95 0.99 1.20 1.34 1.78 2.26 2.00 1.55 1.08 1.13 1.18 1.33 1.56 1.13 0.99 1.06 1.12 1.16 1.16 1.18 1.22 1.26 1.31 1.29
1.26 1.18 1.16 1.34 1.41 1.44 1.31 1.11 1.12 1.18 1.08 0.98 0.95 0.95 0.94 0.94 0.98 1.03 1.31 2.02 2.38 1.87 1.15 1.49 1.72 1.48 1.67 1.31 1.02 1.02 1.08 1.16 1.23 1.24 1.28 1.31 1.32 1.38
1.18 1.07 1.11 1.35 1.35 1.31 1.21 1.21 1.30 1.23 1.04 1.07 1.07 1.03 1.00 0.99 1.00 1.04 1.10 1.30 1.65 1.81 1.44 1.72 2.18 1.78 1.89 1.59 1.17 1.08 1.13 1.28 1.43 1.43 1.37 1.47 1.45 1.46
1.16 1.22 1.26 1.28 1.23 1.18 1.21 1.22 1.17 1.09 1.13 1.22 1.16 1.05 0.99 1.02 1.08 1.15 1.18 1.20 1.29 1.36 1.35 1.42 1.74 1.77 1.96 1.92 1.47 1.24 1.33 1.39 1.54 1.74 1.71 1.58 1.44 1.42
1.24 1.26 1.24 1.20 1.18 1.19 1.25 1.19 1.06 1.09 1.25 1.31 1.21 1.11 1.09 1.15 1.19 1.25 1.41 1.45 1.55 1.49 1.36 1.29 1.37 1.66 1.78 1.49 1.56 1.52 1.50 1.75 1.78 1.95 1.94 1.72 1.50 1.35
1.27 1.15 1.10 1.10 1.12 1.11 1.07 1.08 1.09 1.13 1.22 1.21 1.25 1.25 1.24 1.32 1.40 1.47 1.64 1.73 1.76 1.55 1.36 1.22 1.18 1.27 1.44 1.52 1.57 1.45 1.51 1.74 1.92 2.02 2.04 1.92 1.69 1.48
1.25 1.14 1.08 1.03 1.03 1.04 1.02 1.02 1.05 1.09 1.17 1.31 1.36 1.38 1.43 1.51 1.60 1.64 1.77 1.89 1.80 1.51 1.29 1.14 1.14 1.28 1.34 1.33 1.37 1.47 1.56 1.76 1.90 1.91 1.80 1.85 1.81 1.54
1.05 1.01 1.00 1.00 0.99 0.99 1.02 1.05 1.08 1.08 1.21 1.43 1.55 1.59 1.66 1.71 1.77 1.82 1.83 1.81 1.66 1.43 1.26 1.15 1.26 1.65 1.74 1.30 1.04 1.24 1.68 1.83 1.78 1.78 1.63 1.56 1.65 1.48
0.95 0.93 0.92 0.92 0.97 1.02 1.07 1.15 1.20 1.21 1.31 1.47 1.58 1.64 1.74 1.87 1.91 1.83 1.73 1.67 1.57 1.37 1.18 1.05 1.14 1.59 2.11 1.85 1.50 1.30 1.42 1.72 1.85 1.82 1.55 1.38 1.41 1.39
0.92 0.89 0.89 0.92 0.99 1.05 1.11 1.20 1.31 1.42 1.50 1.64 1.69 1.71 1.78 1.97 1.94 1.72 1.58 1.49 1.43 1.30 1.15 0.95 0.92 1.18 1.58 1.84 1.74 1.40 1.42 1.55 1.70 1.94 1.85 1.76 1.58 1.39
0.95 0.95 0.94 0.96 1.03 1.09 1.15 1.26 1.40 1.47 1.55 1.65 1.70 1.72 1.78 1.90 1.85 1.59 1.40 1.36 1.28 1.20 1.12 0.97 0.91 1.06 1.41 1.81 1.63 1.30 1.28 1.32 1.32 1.32 1.53 1.88 2.31 2.30
1.02 1.04 1.04 1.05 1.09 1.16 1.23 1.29 1.41 1.48 1.56 1.68 1.71 1.67 1.65 1.61 1.44 1.37 1.32 1.30 1.31 1.24 1.18 1.14 1.06 1.10 1.23 1.37 1.47 1.34 1.20 1.14 1.11 1.23 1.47 1.43 1.46 1.63